{"data":{"norad_id":59611,"intl_designator":"2024-080L","name":"STARLINK-31448","alt_names":[],"object_type":"PAYLOAD","status":"ACTIVE","operator":null,"country":"US","launch_date":"2024-04-28","launch_site_code":"AFETR","launch_vehicle":null,"mission":null,"orbit_class":"UNKNOWN","rcs_meters":null,"size_class":null,"mass_kg":null,"dimensions":null,"purposes":["comms"],"wikipedia_slug":null,"has_3d_model":false,"image_url":null,"decayed_at":null,"tle_current":{"epoch":"2026-05-25T04:49:31.787904Z","epoch_age_seconds":53559,"freshness":"FRESH","line1":"1 59611U 24080L   26145.20106236  .00000274  00000+0  19483-4 0  9995","line2":"2 59611  43.0021 322.3913 0000934 280.1155  79.9591 15.27576212116270","mean_motion":15.27576212,"eccentricity":9.34e-5,"inclination_deg":43.0021,"raan_deg":322.3913,"arg_perigee_deg":280.1155,"mean_anomaly_deg":79.9591,"bstar":1.9483e-5,"rev_number":11627,"period_min":94.266982471183,"perigee_km":482.41960285704,"apogee_km":483.70127453859,"semimajor_km":6861.1974386978,"source":"CELESTRAK","updated_at":"2026-05-25T13:38:19.009724Z"}}}